Date,TemperatureHighF,TemperatureAvgF,TemperatureLowF,DewpointHighF,DewpointAvgF,DewpointLowF,HumidityHigh,HumidityAvg,HumidityLow,PressureMaxIn,PressureMinIn,WindSpeedMaxMPH,WindSpeedAvgMPH,GustSpeedMaxMPH,PrecipitationSumIn
2013-1-1,43.6,39.7,35.7,41.5,37.7,33.6,93,93,92,30.07,29.50,15,11,18,0.00
2013-1-2,53.0,49.8,42.5,49.8,46.2,40.0,93,87,82,30.25,30.04,19,14,21,0.00
2013-1-3,53.3,52.2,51.2,49.8,48.3,46.1,91,86,82,30.51,30.26,17,12,18,0.01
2013-1-4,51.2,49.9,45.9,48.4,46.9,42.8,91,90,87,30.55,30.44,17,12,17,0.00
2013-1-5,52.8,51.3,48.5,49.7,48.1,43.9,90,89,84,30.44,30.33,19,12,22,0.00
2013-1-6,51.1,49.3,46.1,48.2,45.4,40.9,90,87,81,30.44,30.21,16,11,17,0.01
2013-1-7,52.2,50.7,47.8,47.8,46.0,43.4,88,84,82,30.20,30.00,19,14,25,0.28
2013-1-8,53.0,47.5,39.0,48.6,44.0,35.2,91,88,82,30.25,29.98,19,8,24,0.01
2013-1-9,42.9,35.5,29.7,38.4,31.3,25.5,88,85,81,30.24,30.07,7,3,7,0.02
2013-1-10,43.4,40.2,32.4,38.8,36.1,28.4,89,85,83,30.06,29.92,12,7,13,0.06
2013-1-11,45.4,41.1,34.6,42.0,37.3,30.8,91,86,83,30.04,29.81,14,9,18,0.00
2013-1-12,45.2,42.4,39.8,41.1,39.0,36.3,91,88,84,30.08,29.78,15,10,19,0.03
2013-1-13,39.7,35.9,33.3,35.9,32.2,30.5,91,86,81,30.17,30.07,10,6,13,0.03
2013-1-14,37.2,36.8,36.3,32.2,31.8,31.3,82,82,82,30.08,30.06,8,8,10,0.00
2013-1-19,37.3,36.2,35.0,35.0,33.7,32.1,92,90,89,29.60,29.56,11,6,11,0.00
2013-1-20,37.3,36.5,34.3,34.7,33.7,31.7,92,89,86,29.59,29.39,14,9,14,0.00
2013-1-21,37.0,34.7,31.5,34.3,31.1,27.2,92,86,83,29.39,29.33,10,4,14,0.00
2013-1-22,35.5,20.3,25.1,30.5,-15.1,-99.9,85,56,82,29.74,29.37,4,-324,5,0.07
2013-1-23,38.1,18.3,35.9,34.4,-35.3,-99.9,88,40,79,29.85,29.74,10,-507,11,0.00
2013-1-24,41.0,39.6,37.0,35.3,33.8,31.4,81,80,78,30.00,29.87,13,8,17,0.00
2013-1-25,47.2,43.8,40.8,45.6,38.3,32.1,100,81,71,29.91,29.35,20,13,24,0.58
2013-1-26,53.6,46.6,37.9,46.2,39.9,30.4,100,78,72,29.67,28.96,24,17,31,0.12
2013-1-27,52.8,40.9,36.4,44.4,34.7,28.9,80,78,73,29.41,28.94,24,4,34,0.24
2013-1-28,49.2,44.5,36.7,43.0,38.1,30.5,80,78,74,29.50,29.06,0,0,0,0.53
2013-1-29,56.9,47.9,43.9,49.4,41.1,37.6,80,77,70,29.42,29.09,0,0,0,0.20
2013-1-30,45.6,43.7,41.4,39.8,37.5,35.7,80,79,73,29.80,29.32,0,0,0,0.31
2013-1-31,48.7,44.4,41.3,41.5,38.3,35.6,80,79,74,29.72,29.48,0,0,0,0.16
2013-2-1,44.4,41.4,36.4,38.6,35.4,31.1,81,79,75,29.88,29.42,0,0,0,0.02
2013-2-2,44.4,38.1,33.1,36.3,32.1,27.3,81,79,71,30.28,29.90,13,2,13,0.01
2013-2-3,51.2,48.9,39.6,44.5,41.1,31.4,80,74,69,30.15,29.80,29,17,29,0.14
2013-2-4,49.9,42.6,33.9,43.4,36.0,27.4,81,77,70,29.90,29.64,31,22,45,0.06
2013-2-5,44.2,38.9,31.5,38.3,32.7,23.8,85,78,73,29.74,29.42,27,18,35,0.17
2013-2-6,43.7,39.5,33.8,35.8,33.0,28.0,81,77,66,30.27,29.74,23,13,28,0.00
2013-2-7,42.9,36.3,33.4,33.4,28.8,27.0,80,74,69,30.27,29.92,16,7,24,0.17
2013-2-24,37.8,35.7,34.4,30.9,28.8,27.3,77,76,75,30.47,30.45,3,1,10,0.02
2013-2-25,44.6,37.1,32.0,37.2,29.2,24.5,77,73,68,30.58,30.45,7,3,10,0.02
2013-2-26,43.7,40.2,33.2,36.3,31.8,24.5,76,72,66,30.66,30.56,11,4,13,0.00
2013-2-27,43.6,39.9,35.4,36.4,31.2,25.0,76,71,65,30.68,30.61,7,3,7,0.00
2013-2-28,47.1,39.3,33.2,39.6,29.5,22.4,76,68,63,30.62,30.50,6,2,9,0.00
2013-3-1,47.8,42.3,33.0,39.9,32.9,23.2,76,69,62,30.53,30.48,10,4,13,0.00
2013-3-2,46.0,38.6,31.7,38.5,29.7,21.3,76,70,64,30.49,30.29,6,3,7,0.01
2013-3-3,46.1,42.0,37.5,38.1,33.6,28.6,76,72,65,30.29,30.05,10,4,10,0.00
2013-3-4,44.3,40.6,33.8,36.9,33.2,25.4,76,75,68,30.05,29.73,10,5,12,0.00
2013-3-5,47.2,39.8,32.6,40.0,30.2,22.6,76,68,62,29.73,29.57,12,6,14,0.01
2013-3-6,46.6,44.4,42.4,43.4,36.4,31.4,95,74,62,29.56,29.47,16,11,19,0.13
2013-3-7,46.2,44.8,44.0,44.6,43.1,42.1,97,94,93,29.45,29.30,18,13,24,0.78
2013-3-8,48.0,46.3,44.2,45.9,44.0,41.9,95,92,89,29.50,29.29,18,14,26,0.35
2013-3-9,44.4,42.3,39.7,41.7,40.4,38.7,100,93,90,29.71,29.50,19,15,22,0.19
2013-3-10,41.4,38.2,34.0,40.1,32.6,18.6,100,81,53,29.96,29.71,23,20,28,0.07
2013-3-11,35.8,32.8,30.7,23.2,20.4,16.4,69,60,51,30.09,29.96,20,14,24,0.00
2013-3-12,40.0,36.4,31.3,29.1,24.7,19.4,68,62,53,30.11,29.99,14,7,20,0.00
2013-3-13,46.7,37.3,31.2,33.5,25.7,18.0,68,63,56,30.07,29.97,14,7,16,0.03
2013-3-14,47.4,40.5,30.7,36.7,30.1,20.1,69,66,60,30.08,29.72,18,10,18,0.01
2013-3-15,48.4,41.0,34.0,35.9,28.7,-99.9,90,66,55,29.69,29.35,19,-10,23,0.06
2013-3-16,45.7,38.5,32.0,36.2,32.7,30.5,94,80,56,29.34,29.27,16,5,16,0.01
2013-3-17,39.7,35.6,32.0,37.3,33.4,30.5,96,92,86,29.29,29.12,8,5,9,0.17
2013-3-18,43.6,38.4,34.7,37.5,34.8,31.0,95,87,77,29.46,29.17,14,8,15,0.26
2013-3-19,38.4,35.0,31.7,34.4,32.4,29.4,96,90,83,29.52,29.45,11,6,17,0.21
2013-3-20,41.8,37.3,31.9,38.8,35.2,30.9,97,92,85,29.88,29.52,12,6,12,0.06
2013-3-21,40.6,39.1,36.9,36.7,35.0,33.8,92,85,79,29.90,29.61,25,17,28,0.38
2013-3-22,40.0,38.1,36.7,38.7,36.5,35.1,95,94,92,29.69,29.53,27,20,27,0.99
2013-3-23,37.1,36.0,34.2,35.0,33.5,30.6,94,91,84,29.94,29.70,21,17,24,0.31
2013-3-24,35.7,34.7,33.8,30.6,28.3,26.1,84,77,71,30.07,29.93,24,21,31,0.00
2013-3-25,37.7,35.6,34.5,28.6,26.8,25.0,75,70,65,30.12,30.07,22,18,26,0.00
2013-3-26,37.5,34.9,31.3,31.4,28.0,23.7,91,76,65,30.11,30.04,20,13,20,0.05
2013-3-27,38.1,33.7,31.0,32.7,29.0,26.1,93,83,70,30.03,29.99,20,9,21,0.08
2013-3-28,38.3,35.5,31.4,31.6,28.1,24.9,90,74,62,30.01,29.93,16,12,18,0.02
2013-3-29,38.3,35.7,33.4,27.2,25.4,23.6,72,66,58,29.93,29.84,18,12,23,0.00
2013-3-30,38.8,36.8,35.1,28.4,25.4,23.7,73,63,55,29.96,29.86,13,8,14,0.00
2013-3-31,39.9,37.5,35.8,29.3,27.4,25.1,74,67,61,29.94,29.84,18,12,22,0.00
2013-4-1,36.0,35.0,34.4,27.8,27.1,25.8,74,73,70,29.85,29.84,12,10,13,0.00
2013-4-3,41.1,36.8,33.9,28.8,25.8,22.9,72,65,48,30.22,30.20,9,5,10,0.00
2013-4-4,43.2,37.4,30.8,32.6,29.5,26.1,89,74,57,30.22,30.19,16,8,24,0.00
2013-4-5,44.2,36.8,30.1,34.8,28.8,25.6,89,73,56,30.29,30.19,12,5,17,0.00
2013-4-6,48.7,37.9,27.9,33.1,29.4,24.8,88,73,52,30.33,30.21,15,6,17,0.00
2013-4-7,44.2,39.6,34.2,36.6,32.8,29.9,87,77,61,30.21,29.82,16,10,22,0.00
2013-4-8,43.8,40.9,38.4,35.5,34.1,32.3,85,77,67,29.81,29.52,22,16,27,0.00
2013-4-9,43.6,39.2,36.3,36.2,33.7,31.7,87,81,74,29.61,29.49,20,13,25,0.00
2013-4-10,45.6,41.2,35.2,42.2,38.2,32.6,93,89,83,29.63,29.48,12,8,14,0.01
2013-4-11,46.0,42.9,40.2,43.8,41.1,38.6,96,93,89,29.47,29.26,16,9,19,0.19
2013-4-12,49.1,42.1,38.3,42.4,39.6,36.2,97,91,76,29.68,29.27,12,4,12,0.01
2013-4-13,54.2,44.5,37.5,51.3,42.5,35.7,97,93,82,29.70,29.37,22,12,27,0.12
2013-4-14,57.1,52.8,47.6,51.2,47.5,44.3,95,83,71,29.51,29.38,32,22,40,0.11
2013-4-15,59.7,51.9,47.3,47.1,44.4,41.3,91,76,54,29.78,29.47,24,18,27,0.06
2013-4-16,55.6,50.5,45.7,45.6,38.5,31.0,84,65,40,29.90,29.44,30,21,35,0.02
2013-4-17,56.6,50.1,44.1,50.8,45.3,33.1,94,84,60,29.88,29.17,34,21,41,0.17
2013-4-18,52.4,46.3,42.4,44.0,41.5,38.8,91,84,69,30.07,29.22,31,20,37,0.35
2013-4-19,56.2,45.8,37.0,41.6,38.3,35.3,94,77,47,30.45,30.09,12,7,13,0.00
2013-4-20,55.9,47.9,39.5,42.3,39.3,35.0,89,73,54,30.46,30.20,17,10,24,0.00
2013-4-21,54.0,47.5,42.6,43.8,40.9,36.8,91,78,58,30.19,29.93,19,13,21,0.06
2013-4-22,59.0,49.3,41.7,52.5,44.2,38.2,94,83,63,29.95,29.79,22,15,32,0.01
2013-4-23,59.6,52.4,45.6,48.7,45.6,42.5,92,78,65,30.11,29.93,16,11,23,0.00
2013-4-24,54.6,51.2,44.5,51.3,47.8,43.0,95,88,76,30.25,30.00,17,10,22,0.14
2013-4-25,53.9,45.5,41.6,44.0,41.1,35.5,97,85,64,30.23,30.12,14,7,29,0.39
2013-4-26,49.3,42.4,34.6,38.4,34.9,29.9,92,76,51,30.17,30.03,23,13,35,0.01
2013-4-27,52.1,44.9,38.0,39.1,35.5,32.9,86,70,51,30.19,30.08,16,8,25,0.00
2013-4-28,51.8,45.7,39.3,45.9,39.6,34.5,95,79,66,30.11,29.83,19,14,33,0.03
2013-4-29,55.7,45.5,38.4,46.9,37.0,33.0,88,73,45,30.25,29.89,19,14,31,0.02
2013-4-30,52.4,44.6,34.8,39.6,36.1,32.7,93,74,47,30.36,30.25,10,5,14,0.00
2013-5-1,59.0,48.1,39.1,44.6,39.2,32.7,90,73,45,30.31,30.24,14,9,21,0.00
2013-5-2,57.3,49.5,37.8,45.2,41.5,34.8,94,75,57,30.31,30.12,13,8,19,0.00
2013-5-3,55.8,51.2,47.8,48.5,45.9,43.8,94,82,69,30.12,29.84,24,15,34,0.13
2013-5-4,57.5,50.1,44.1,49.8,43.1,40.3,94,78,57,29.98,29.81,20,14,27,0.00
2013-5-5,61.6,55.4,51.2,50.5,48.8,45.9,94,79,61,30.08,29.98,18,14,26,0.01
2013-5-6,62.3,54.1,48.7,51.0,47.6,45.0,93,80,63,30.07,29.99,12,9,20,0.07
2013-5-7,61.0,53.4,43.3,50.2,46.2,41.4,94,77,62,30.02,29.69,15,8,25,0.00
2013-5-8,58.6,51.4,45.5,51.7,46.3,38.7,96,83,70,29.69,29.30,22,15,33,0.34
2013-5-9,52.1,47.3,44.8,47.4,42.6,37.7,92,84,76,29.56,29.18,22,18,40,0.38
2013-5-10,55.8,49.0,42.7,50.1,42.3,34.0,96,79,45,29.71,29.56,22,14,32,0.20
2013-5-11,51.6,46.7,42.7,44.2,41.4,38.5,94,82,63,29.90,29.66,21,15,43,0.14
2013-5-13,41.6,40.6,40.2,37.1,36.7,36.3,87,86,84,29.73,29.70,14,12,15,0.17
2013-5-14,56.8,46.1,37.6,41.7,38.4,35.1,91,76,52,29.69,29.38,17,11,19,0.01
2013-5-15,53.5,45.1,39.5,41.7,38.7,34.8,90,79,60,29.54,29.43,21,13,23,0.01
2013-5-16,50.1,44.4,37.1,42.1,39.0,34.3,91,82,70,29.60,29.47,12,7,13,0.14
2013-5-19,59.2,55.0,53.4,50.2,49.3,48.6,86,81,72,30.04,29.99,5,2,5,0.00
2013-5-20,58.7,53.3,48.8,53.5,49.6,45.1,92,87,81,30.14,30.02,15,9,18,0.00
2013-5-21,62.8,52.9,46.2,49.5,46.1,42.8,93,78,61,30.19,30.13,14,11,17,0.02
2013-5-22,56.4,50.0,43.4,47.5,41.4,35.8,98,74,52,30.26,30.19,19,12,19,0.01
2013-5-23,50.2,44.6,38.7,40.0,36.5,33.6,87,74,53,30.20,30.09,20,13,24,0.04
2013-5-24,56.5,47.0,40.2,41.1,38.1,35.5,89,72,52,30.23,30.05,19,10,20,0.00
2013-5-25,61.0,50.7,38.0,46.3,42.2,36.2,93,74,52,30.23,30.15,11,5,14,0.00
2013-5-26,61.8,54.0,48.4,49.3,47.0,44.3,94,78,53,30.17,29.75,17,9,17,0.02
2013-5-27,55.9,50.1,44.9,47.7,45.0,40.5,94,83,59,29.75,29.42,20,11,24,0.59
2013-5-28,55.2,48.4,40.1,48.6,44.1,38.5,95,85,74,29.69,29.50,10,6,13,0.05
2013-5-29,65.8,56.1,47.1,52.5,47.5,43.6,99,74,53,29.99,29.68,14,9,17,0.29
2013-5-30,67.3,57.3,47.7,51.6,46.7,42.8,83,68,53,30.14,29.99,19,10,19,0.00
2013-5-31,59.1,52.0,44.1,52.5,45.8,38.1,93,80,62,30.29,30.14,12,7,14,0.00
2013-6-1,58.4,51.0,42.5,49.6,44.1,37.3,91,78,67,30.40,30.29,14,7,17,0.01
2013-6-2,62.1,54.7,47.7,51.0,47.2,40.9,89,76,63,30.46,30.38,10,5,10,0.00
2013-7-11,58.8,57.0,56.1,56.2,54.8,53.9,94,92,91,30.28,30.28,0,0,2,0.00
2013-7-12,82.0,67.7,51.9,65.5,58.7,50.5,97,75,51,30.28,30.23,8,3,9,0.00
2013-7-13,72.6,64.4,55.7,64.2,59.2,54.0,95,84,68,30.33,30.25,7,3,11,0.00
2013-7-14,77.1,64.7,55.2,60.6,56.2,52.1,96,77,43,30.33,30.21,9,3,10,0.00
2013-7-15,67.2,60.5,54.4,57.6,54.9,53.4,97,83,65,30.26,30.23,10,4,14,0.00
2013-7-16,58.5,57.9,57.3,54.4,54.2,53.7,90,88,85,30.25,30.24,5,5,5,0.00
2013-7-23,74.8,67.3,60.9,61.9,59.3,57.9,91,77,61,29.83,29.79,13,8,14,0.01
2013-7-24,68.9,63.2,58.8,63.4,58.9,57.0,94,86,76,29.83,29.78,10,7,12,0.06
2013-7-25,70.2,62.4,58.0,64.1,59.7,56.5,98,91,74,29.81,29.75,12,4,13,0.67
2013-7-26,69.8,62.0,55.3,60.9,57.8,54.2,96,87,69,29.84,29.79,11,6,13,0.04
2013-7-27,67.5,60.8,55.8,60.0,56.4,53.2,95,86,69,29.82,29.62,10,6,11,0.01
2013-7-28,71.2,59.9,51.6,60.3,56.6,50.5,97,89,59,29.62,29.53,12,5,12,0.01
2013-7-29,69.3,61.1,56.4,60.2,56.2,50.0,97,85,62,29.82,29.57,12,7,17,0.01
2013-7-30,68.5,60.5,51.5,56.8,52.4,49.3,92,76,56,29.87,29.77,16,10,23,0.02
2013-7-31,66.2,58.3,53.7,64.4,56.0,51.1,97,92,83,29.88,29.66,14,8,20,0.39
2013-8-1,72.0,64.3,61.4,65.1,61.9,59.7,96,92,79,29.68,29.52,15,10,17,0.18
2013-8-2,69.1,62.6,55.2,60.5,55.9,52.3,95,79,62,29.63,29.48,22,14,23,0.16
2013-8-3,68.2,58.0,52.4,56.0,52.9,50.4,93,84,60,29.90,29.63,18,12,24,0.13
2013-8-4,67.9,59.7,51.5,59.8,55.5,49.8,97,87,71,29.91,29.84,10,6,12,0.00
2013-8-5,66.7,59.5,55.3,57.2,52.6,47.5,97,79,56,29.95,29.79,14,8,17,0.00
2013-8-6,65.1,58.8,54.0,56.4,52.8,47.8,92,81,65,29.97,29.90,10,6,11,0.00
2013-8-7,68.4,59.2,49.3,56.3,53.2,47.4,96,81,59,30.07,29.92,8,3,12,0.00
2013-8-8,71.4,61.3,54.0,58.9,54.8,51.7,94,81,50,30.05,29.89,15,6,16,0.04
2013-8-9,64.5,58.9,55.6,55.9,52.0,50.2,93,79,64,30.20,29.93,17,8,22,0.01
2013-8-10,69.2,59.8,53.7,55.5,51.9,49.5,90,76,57,30.21,30.06,13,8,16,0.00
2013-8-11,66.1,58.6,52.0,51.9,49.9,47.4,94,74,53,30.07,29.99,18,11,20,0.00
2013-8-12,64.8,56.8,49.8,53.3,49.2,44.5,92,77,51,30.14,30.00,17,10,19,0.00
2013-8-13,66.9,58.5,52.0,57.3,53.8,48.2,96,85,68,30.18,30.12,8,6,10,0.03
2013-8-14,71.4,62.8,55.6,63.3,57.9,52.4,95,84,70,30.15,29.98,11,7,13,0.03
2013-8-15,70.3,63.5,59.1,63.2,60.9,57.4,95,91,74,29.96,29.75,18,12,20,0.36
2013-8-16,67.6,59.9,52.0,57.9,54.5,50.6,95,83,66,29.92,29.85,12,7,15,0.02
2013-8-17,70.0,60.9,54.2,64.0,57.0,50.7,94,87,78,29.87,29.48,20,12,23,0.40
2013-8-18,63.2,56.9,51.2,53.8,50.8,49.5,94,81,64,29.90,29.61,14,10,17,0.01
2013-8-19,67.6,58.7,50.6,54.7,51.4,48.1,91,78,55,30.24,29.91,14,8,17,0.00
2013-8-20,67.5,61.0,55.4,56.0,54.5,53.1,93,80,62,30.28,30.13,14,10,17,0.00
2013-8-21,69.8,63.3,59.5,59.6,57.8,55.9,91,82,69,30.13,30.04,19,13,21,0.00
2013-8-22,67.6,59.3,54.9,58.3,55.8,52.7,97,89,71,30.11,29.94,12,5,15,0.02
2013-8-23,62.4,58.3,54.8,59.1,56.2,53.5,97,93,85,29.95,29.86,9,4,10,0.06
2013-8-24,62.4,55.6,47.7,53.7,50.5,46.6,96,84,63,30.02,29.93,9,5,9,0.00
2013-8-25,66.1,59.7,55.1,58.0,55.6,52.5,96,87,73,30.18,29.96,10,4,11,0.00
2013-8-26,64.8,57.5,49.0,56.9,53.1,47.9,98,86,73,30.19,30.13,7,3,7,0.01
2013-8-27,66.8,59.5,54.2,60.5,56.4,50.7,98,90,80,30.25,30.11,8,4,11,0.02
2013-8-28,62.3,55.3,50.8,51.1,49.2,47.0,92,80,66,30.26,30.22,6,2,7,0.00
2013-9-12,63.9,60.3,51.7,62.4,58.8,49.7,97,95,92,30.09,29.98,13,10,16,0.13
2013-9-13,55.6,51.1,47.2,49.1,47.2,44.1,97,87,72,30.14,30.08,7,3,8,0.01
2013-9-14,62.1,51.1,42.9,48.4,43.8,41.5,95,78,53,30.13,30.02,8,4,11,0.00
2013-9-15,57.5,52.5,49.5,55.5,48.8,44.4,93,87,81,30.01,29.49,23,17,30,0.02
2013-9-16,47.5,47.4,47.2,42.0,41.7,41.5,82,81,80,29.63,29.62,15,13,15,0.05
2013-9-17,50.1,47.6,44.1,48.7,44.6,41.5,97,89,80,29.62,29.38,13,6,15,0.14
2013-9-18,55.2,49.7,45.6,47.9,45.2,42.0,97,85,67,29.87,29.50,17,9,19,0.01
2013-9-19,62.2,53.0,46.4,54.2,47.7,43.0,96,83,66,29.92,29.58,21,13,28,0.22
2013-9-20,60.9,53.8,48.4,49.4,46.8,43.5,87,78,62,30.07,29.93,13,8,15,0.00
2013-9-21,71.0,61.2,52.9,62.6,57.2,49.6,97,87,74,30.21,30.04,16,8,17,0.00
2013-9-22,71.3,62.1,55.6,59.6,56.8,54.0,95,84,64,30.31,30.21,10,7,12,0.00
2013-9-23,68.2,59.8,52.6,61.1,57.1,51.7,98,91,77,30.27,30.08,17,6,20,0.01
2013-9-24,58.5,56.3,55.6,57.4,55.6,54.8,98,98,94,30.07,29.96,7,4,8,0.00
2013-9-26,56.5,56.2,55.9,55.5,55.2,54.8,97,96,96,29.98,29.95,12,10,13,0.09
2013-9-27,64.4,57.7,53.7,59.2,55.3,52.8,99,92,73,29.98,29.86,11,6,13,0.00
2013-9-28,59.7,55.3,53.1,55.5,53.8,52.6,98,95,86,29.86,29.75,11,6,13,0.01
2013-9-29,60.2,56.5,54.8,54.5,53.0,51.9,95,88,79,29.77,29.72,20,11,25,0.01
2013-9-30,59.0,56.0,52.6,56.4,53.5,50.8,94,91,84,29.72,29.65,14,8,17,0.00
2013-10-1,58.8,56.8,54.9,56.2,54.9,53.5,96,93,90,29.68,29.63,16,11,18,0.33
2013-10-2,62.6,59.2,57.1,60.7,58.0,55.7,97,96,93,29.63,29.58,16,13,23,0.27
2013-10-3,61.2,59.3,57.7,59.8,58.4,57.1,98,97,95,29.61,29.51,13,9,16,0.52
2013-10-4,61.1,57.1,53.3,57.7,55.3,51.7,98,94,84,29.92,29.54,11,6,15,0.02
2013-10-5,64.8,55.6,49.6,56.2,51.7,47.5,96,87,71,30.15,29.93,12,8,14,0.00
2013-10-6,66.2,59.7,53.1,62.2,57.0,49.4,97,91,86,30.15,30.10,14,11,18,0.02
2013-10-7,64.4,61.7,58.6,60.2,58.3,56.7,96,89,81,30.13,30.04,17,13,18,0.01
2013-10-8,58.6,55.7,52.0,56.4,53.4,49.2,95,92,84,30.29,30.08,15,9,15,0.00
2013-10-9,53.6,48.7,42.2,49.1,43.5,37.2,94,83,60,30.29,30.19,20,11,20,0.00
2013-10-10,53.1,44.7,38.1,41.7,38.2,35.4,92,79,59,30.41,30.26,16,8,19,0.00
2013-10-11,53.0,47.7,40.7,48.2,43.1,36.1,88,84,80,30.42,30.39,11,6,14,0.00
2013-10-12,53.3,51.6,49.4,50.0,47.2,44.4,90,85,80,30.38,30.18,10,7,16,0.00
2013-10-13,52.6,50.1,46.7,49.7,46.0,42.5,91,86,76,30.18,29.98,8,4,11,0.00
2013-10-14,55.3,49.0,42.3,46.8,44.3,39.2,95,84,69,29.98,29.89,10,4,17,0.00
2013-10-15,55.9,47.9,38.7,50.5,45.2,37.4,96,91,78,29.91,29.86,10,5,11,0.01
2013-10-16,52.6,50.8,48.6,51.2,49.0,47.4,98,94,87,29.87,29.55,15,9,24,1.02
2013-10-17,61.0,52.5,44.9,54.8,49.6,43.8,97,90,77,29.88,29.71,11,8,12,0.00
2013-10-18,56.3,54.8,52.1,55.2,53.3,49.8,97,95,91,29.88,29.47,22,14,27,0.62
2013-10-19,60.1,55.7,53.1,56.8,53.6,49.9,97,93,86,29.47,29.41,13,8,16,0.10
2013-10-20,57.4,53.0,48.8,53.3,50.8,47.4,96,92,83,29.53,29.28,20,10,24,0.39
2013-10-21,60.3,54.2,48.4,58.2,52.8,47.3,98,95,91,29.54,29.20,18,9,19,0.35
2013-10-22,61.5,57.4,54.9,56.9,54.3,52.3,96,90,80,29.20,29.02,16,9,20,0.10
2013-10-23,54.9,49.2,42.4,53.5,44.9,40.0,96,86,67,29.74,29.03,18,12,19,0.01
2013-10-24,59.1,50.3,40.6,54.7,47.5,38.5,95,90,82,29.84,29.64,16,8,18,0.21
2013-10-25,60.1,55.8,53.1,55.2,53.6,51.6,96,92,83,29.64,29.34,19,12,24,0.79
2013-10-26,54.5,50.6,48.4,52.1,47.7,45.5,96,90,80,29.50,29.18,22,11,22,0.21
2013-10-27,54.3,49.9,47.1,49.5,46.4,43.7,93,88,82,29.18,29.00,26,18,30,0.34
2013-10-28,53.1,47.8,44.6,46.0,43.9,42.1,93,87,70,29.57,28.99,17,13,19,0.00
2013-10-29,49.9,43.8,39.5,44.1,40.3,36.9,93,87,78,30.01,29.57,17,10,17,0.03
2013-10-30,56.1,47.1,39.1,53.1,44.3,37.2,95,90,82,30.01,29.68,25,12,29,0.12
2013-10-31,54.2,47.6,43.2,47.6,44.0,41.6,95,87,74,29.93,29.74,20,14,26,0.06
2013-11-1,52.3,45.0,37.4,45.1,41.1,35.3,94,86,69,29.76,29.59,13,8,14,0.03
2013-11-2,50.5,44.0,38.5,44.6,40.5,35.3,95,88,76,29.59,28.93,25,16,32,0.24
2013-11-3,49.3,41.5,36.3,42.1,37.8,33.9,93,87,69,29.49,29.29,16,9,21,0.00
2013-11-4,48.8,40.1,33.0,42.2,36.6,31.2,99,88,77,29.44,29.26,10,5,11,0.02
2013-11-5,47.5,43.6,40.5,44.5,41.5,38.9,97,92,81,29.41,29.17,16,10,18,0.09
2013-11-6,47.1,43.9,39.3,45.0,42.2,37.7,96,93,89,29.53,29.36,12,8,13,0.07
2013-11-7,49.4,42.9,37.5,42.5,39.3,35.7,94,87,76,29.60,29.53,21,14,25,0.02
2013-11-8,47.0,40.1,35.7,42.1,37.2,33.6,93,89,76,29.64,29.56,13,10,15,0.00
2013-11-9,45.0,39.2,33.9,41.0,37.0,32.4,95,92,84,29.73,29.57,11,8,14,0.06
2013-11-10,49.0,41.0,34.5,47.9,38.6,33.4,96,91,77,30.09,29.73,16,7,20,0.13
2013-11-11,55.4,52.2,47.3,54.6,50.2,45.1,98,93,85,30.16,29.85,16,11,18,0.02
2013-11-12,49.6,43.6,38.7,44.7,40.4,36.5,100,89,76,30.52,30.16,14,8,14,0.01
2013-11-13,48.5,43.6,37.1,45.2,40.3,35.5,94,88,78,30.52,30.06,21,15,25,0.11
2013-11-14,48.1,44.2,40.7,40.9,39.2,37.1,91,83,72,30.59,30.14,17,11,22,0.02
2013-11-15,49.1,46.4,42.4,46.0,42.8,38.8,90,87,85,30.58,30.49,10,6,10,0.00
2013-11-16,51.4,49.1,47.0,48.6,46.2,43.9,97,90,85,30.49,30.37,13,9,16,0.01
2013-11-17,52.6,49.7,47.1,51.8,48.8,45.9,98,97,94,30.38,29.95,13,8,16,0.19
2013-11-18,46.1,40.2,34.2,45.3,38.6,32.1,98,94,80,29.96,29.90,14,7,18,0.06
2013-11-19,42.1,36.0,31.6,38.8,33.1,30.0,94,89,78,30.15,29.92,18,12,22,0.01
2013-11-20,44.0,41.6,37.7,41.8,37.4,31.5,94,85,76,29.91,29.68,25,18,30,0.09
2013-11-21,40.2,38.1,36.6,32.5,31.3,30.1,83,76,70,30.13,29.85,19,10,24,0.00
2013-11-22,42.2,35.1,30.0,35.7,31.0,27.3,92,85,76,30.32,30.14,5,2,5,0.00
2013-11-23,45.0,38.9,30.9,42.3,37.2,28.9,96,94,89,30.44,30.32,7,4,8,0.00
2013-11-24,44.9,42.8,41.7,42.4,40.6,37.8,96,92,86,30.67,30.45,4,1,6,0.00
2013-11-25,43.4,41.7,40.1,39.5,38.3,36.8,94,88,83,30.77,30.67,5,2,5,0.00
2013-11-26,46.0,42.8,39.7,43.8,41.1,38.5,97,94,90,30.78,30.67,9,5,10,0.00
2013-11-27,48.1,45.1,39.8,45.3,43.3,38.8,97,94,89,30.67,30.61,7,4,10,0.00
2013-11-28,49.2,47.0,45.6,48.7,45.8,43.8,98,96,89,30.64,30.53,9,4,9,0.01
2013-11-29,46.3,44.9,41.9,44.9,41.5,39.1,95,88,79,30.52,30.37,19,12,20,0.01
2013-11-30,46.8,42.3,37.7,43.0,40.1,35.9,95,92,86,30.52,30.42,12,5,12,0.00
2013-12-1,48.3,45.5,43.7,46.1,43.8,41.7,97,94,84,30.58,30.52,6,3,8,0.01
2013-12-2,45.9,44.3,42.0,42.9,42.0,39.6,96,92,87,30.57,30.41,9,5,13,0.00
2013-12-3,47.2,44.4,40.9,45.3,42.2,38.5,95,92,90,30.41,30.24,14,10,16,0.01
2013-12-4,43.4,38.5,33.3,40.6,35.9,32.0,95,90,82,30.49,30.31,15,8,15,0.01
2013-12-5,47.5,42.8,37.5,45.2,37.9,34.0,92,83,70,30.38,30.01,35,19,36,0.02
2013-12-6,47.4,44.1,37.5,44.6,42.3,35.4,97,93,89,30.37,30.32,12,10,17,0.00
2013-12-7,46.5,44.0,41.4,44.0,42.2,40.1,96,93,90,30.32,30.11,17,11,17,0.01
2013-12-8,52.0,48.7,43.2,48.3,45.9,41.6,95,90,87,30.12,30.06,20,17,24,0.01
2013-12-9,51.3,48.4,44.8,47.1,44.7,41.4,94,87,78,30.22,30.13,18,12,23,0.00
2013-12-10,53.6,51.4,47.7,49.8,46.8,43.6,88,84,73,30.17,30.13,18,13,23,0.00
2013-12-11,54.3,49.5,47.5,45.9,44.4,43.4,89,83,67,30.17,29.98,22,11,24,0.00
2013-12-12,56.8,54.9,52.7,54.0,51.9,46.9,93,90,80,29.98,29.86,20,15,26,0.00
2013-12-13,54.9,48.9,38.7,52.2,44.5,34.7,95,85,73,30.01,29.70,19,14,22,0.03
2013-12-14,52.0,47.0,37.4,50.2,43.6,34.4,94,88,81,30.01,29.49,32,20,32,0.54
2013-12-15,52.8,45.7,39.8,48.3,42.1,36.1,96,87,80,29.91,29.58,25,14,36,0.23
2013-12-16,46.7,41.1,36.5,44.6,38.0,33.8,94,89,83,30.07,29.58,20,13,20,0.08
2013-12-17,46.4,40.8,35.0,41.0,35.7,32.4,91,82,73,30.12,29.68,21,13,26,0.01
2013-12-18,52.4,47.5,38.3,50.1,43.7,35.0,94,87,78,29.66,28.80,29,19,33,0.63
2013-12-19,38.3,35.7,33.1,35.3,33.3,31.8,95,91,87,29.67,29.09,23,17,30,0.17
2013-12-20,51.1,43.7,34.9,48.5,40.7,32.8,93,89,75,29.85,29.47,29,21,35,0.17
2013-12-21,48.1,42.7,37.5,42.4,39.1,35.2,95,87,75,29.60,29.37,25,18,26,0.50
2013-12-22,39.3,35.9,33.4,36.3,33.5,31.4,95,91,87,29.67,29.44,27,17,27,0.17
2013-12-23,51.2,43.9,34.5,48.7,40.9,32.3,95,89,81,29.61,28.34,33,18,33,0.31
2013-12-24,40.6,37.4,34.9,36.1,32.5,28.5,94,83,71,28.70,28.38,32,24,32,0.39
2013-12-25,41.7,35.8,33.5,36.6,32.9,31.0,93,89,82,29.12,28.70,13,9,16,0.00
2013-12-26,49.6,38.4,33.4,45.9,35.8,31.5,97,91,80,29.35,28.44,35,13,36,0.06
2013-12-27,46.9,42.4,36.7,41.0,38.5,34.6,93,86,77,29.02,28.27,37,28,44,0.28
2013-12-28,41.1,36.7,33.7,37.8,34.5,32.0,95,92,87,29.68,29.03,17,11,22,0.00
2013-12-29,49.8,39.8,32.8,47.9,37.0,30.7,93,90,82,29.87,29.42,23,14,29,0.24
2013-12-30,50.2,43.1,39.7,48.2,40.8,36.1,96,92,85,29.62,29.30,22,12,38,0.70
2013-12-31,47.4,42.1,39.1,43.4,38.6,35.9,94,87,79,29.42,29.14,23,14,23,0.23
2014-1-1,48.9,42.0,39.1,47.2,40.0,35.8,97,92,86,29.24,28.59,23,14,25,0.59
2014-1-2,47.4,42.3,38.3,44.7,39.2,36.3,94,89,82,29.14,28.80,24,15,24,0.17